SURFSAT (43614 NORAD) Tracking and Keplerian Element Data

This shows tracking and keplerian element data for the satellite.

Feedback or suggestion? Click here.




ElementValue
Catalog43614
NameSURFSAT
Epoch Orbit4687
Epoch Day198.75485815
Epoch Year2019
RAAN15.6547
Inclination93.0228
Eccentricity0.0015448
Argument of Perigee184.2489
Mean Anonmoly175.8636
Mean Motion15.37614953
Decay Rate1.652E-05
L11 43614U 18070B 19198.75485815 .00001652 00000-0 44821-4 0 9992
L22 43614 93.0228 15.6547 0015448 184.2489 175.8636 15.37614953 46875

Live tracking and technical data element details for SURFSAT (NORAD 43614). SURFSAT can be tracked NOW for your location showing map with azimuth and elevation plus other details from your city location.

Track the satellite on the map from your city or location and see movement details for azimuth, elevation, latitude, longitude, range, height, and movement on the map or in text.







IsCatalogInMostPopularTable: catalog: 43614, numindb: 149
Update: records affected: 1



GetName: 43614 SURFSAT

Hit Count: updated at: Fri, 19 Jul 2019 22:50:47 GMT